Regional Weather Roundup
Issued by NWS Newport/Morehead, NC

Current Version | Previous Version | Graphics & Text | Print | Product List | Glossary Off
Versions: 1 2 3 4 5 6 7 8 9 10 11 12 13 14 15 16 17 18 19 20 21 22 23 24 25 26 27 28 29 30 31 32 33 34 35 36 37 38 39 40 41 42 43 44 45 46 47 48 49 50

000
ASUS42 KMHX 280425
RWRMHX
WEATHER ROUNDUP FOR EASTERN NORTH CAROLINA
NATIONAL WEATHER SERVICE NEWPORT/MOREHEAD CITY NC
1200 AM EDT TUE JUL 28 2015

NOTE: "FAIR" INDICATES FEW OR NO CLOUDS BELOW 12,000 FEET
WITH NO SIGNIFICANT WEATHER AND/OR OBSTRUCTIONS TO VISIBILITY

NCZ015>017-031-032-045>047-102-103-280500-
NORTH COAST

CITY           SKY/WX    TMP DP  RH WIND       PRES   REMARKS
EDENTON        PTCLDY    76  70  81 CALM      30.03S
ELIZABETH CITY CLEAR     73  70  90 CALM      30.03R
KITTY HAWK     PTCLDY    75  68  77 CALM      30.02R
MANTEO         PTCLDY    73  69  87 CALM      30.03R

$$

NCZ045>047-081-094-103-104-280500-
CENTRAL COAST

CITY           SKY/WX    TMP DP  RH WIND       PRES   REMARKS
FRISCO         PTCLDY    80  68  66 SE7       30.02R
SWANQUARTER      N/A     75 N/A N/A E2        29.97S

$$

NCZ095-097-098-100-101-280500-
SOUTHERN COAST

CITY           SKY/WX    TMP DP  RH WIND       PRES   REMARKS
BEAUFORT       CLEAR     79  71  76 E5        30.01R
CEDAR ISLAND     N/A     79 N/A N/A E7        30.06R
JACKSONVILLE   CLEAR     77  71  82 S3        30.00R
PINEY ISLAND   CLEAR    N/A N/A N/A SE5       30.01R
WILMINGTON     PTCLDY    76  72  87 NE3       30.00R


$$

NCZ011>013-027>030-043-044-078>080-089-090>093-098-280500-
COASTAL PLAIN

CITY           SKY/WX    TMP DP  RH WIND       PRES   REMARKS
AHOSKIE        CLEAR     72  69  89 CALM      30.03R
CLINTON        PTCLDY    75  73  92 CALM      30.02S
ELIZABETHTOWN  PTCLDY    74  73  94 CALM      30.00F
GOLDSBORO      CLEAR     76  72  86 CALM      30.00S
GREENVILLE     CLEAR     73  72  94 CALM      30.04S
HAVELOCK       CLEAR     75  70  84 CALM      30.03R
KENANSVILLE    PTCLDY    72  70  94 CALM      30.03S
KINSTON        CLEAR     74  71  89 CALM      30.03R
NEW BERN       CLEAR     74  70  87 CALM      30.03R
RICHLANDS      CLEAR     72  66  83 CALM      30.02R
ROCKY MOUNT    CLEAR     76  71  85 CALM      30.02R
WASHINGTON     CLEAR     73  70  91 CALM      30.03R
WHITEVILLE     MOCLDY    74  72  94 CALM      29.99S

$$

AMZ130-135-150-152-154-156-158-170-250-252-270-ANZ085-086-088-633-658-670-280500-
MARINE OBSERVATIONS

STATION/POSITION TIME  TEMP    WIND        PRES    WAVE   SWELL
                       AIR SEA DIR/SP/G            HT/PER HT/PER
                 (UTC) (F)     (DEG/KT/KT) (MB)    (FT/S) (FT/S)
CHESAPEAKE LIGHT 0400   80     180/ 13/ 15 1016.9
64 E VA BEACH    0350   80 80  180/  8/ 10 1016.6    3/ 5   3/ 5
DUCK             0400   79 75  160/  6/  8 1015.8
2 E DUCK         0311      80                N/A     2/11   2/11
OREGON INLET     0400   77 81  140/  3/  4 1016.7
13E OREGON INLT  0400      79                N/A     2/11   2/11
HATTERAS CG      0400   80 83  110/  5/  7 1016.2
DIAMOND BUOY     NOT AVBL
CAPE LOOKOUT     0400   80     120/ 10/ 11 1015.7
BEAUFORT LAB     0400   80 82  140/  6/  9 1015.5
30 SE NEW RVR IN NOT AVBL
27 SE WRIGHTSVLE 0400   78 81  110/ 10/ 10   N/A
5 SE WRIGHTSVLE  0308   81 81  120/  8/ 12 1015.6
225 S CAPE HAT   0350   81 82  260/ 21/ 29 1015.5    5/ 6   2/11
41 SE CHARLESTON 0350   83 84   90/  4/  6 1013.8    3/ 6   3/ 6

$$



USA.gov is the U.S. government's official web portal to all federal, state and local government web resources and services.